| time (UTC) | temp C | wind direction | speed KPH | gust KPH | rain 1hr cm | rain 24hr cm | rain mn cm | humidity % | barometer mb |
| 20260901174552 | 15 | 298 | 1.6 | 9.7 | 0.00 | 0.00 | 0.00 | 77 | 1011.7 |
| 20260901173039 | 15 | 268 | 1.6 | 9.7 | 0.00 | 0.00 | 0.00 | 77 | 1011.5 |
| 20260901171541 | 16 | 303 | 1.6 | 14.5 | 0.00 | 0.00 | 0.00 | 76 | 1011.4 |
| 20260901170038 | 16 | 296 | 6.4 | 17.7 | 0.00 | 0.00 | 0.00 | 76 | 1011.4 |
| 20260901164541 | 16 | 244 | 6.4 | 16.1 | 0.00 | 0.00 | 0.00 | 75 | 1011.6 |
| 20260901163035 | 16 | 284 | 3.2 | 14.5 | 0.00 | 0.00 | 0.00 | 76 | 1011.6 |
| 20260901161542 | 15 | 288 | 4.8 | 17.7 | 0.00 | 0.00 | 0.00 | 77 | 1011.7 |
| 20260901160058 | 15 | 315 | 4.8 | 12.9 | 0.00 | 0.00 | 0.00 | 78 | 1011.8 |
| 20260901154535 | 15 | 317 | 6.4 | 14.5 | 0.00 | 0.00 | 0.00 | 79 | 1011.9 |
| 20260901153033 | 15 | 294 | 3.2 | 11.3 | 0.00 | 0.00 | 0.00 | 79 | 1011.9 |
| 20260901151532 | 15 | 327 | 4.8 | 14.5 | 0.00 | 0.00 | 0.00 | 78 | 1011.9 |
| 20260901150030 | 15 | 315 | 3.2 | 12.9 | 0.00 | 0.00 | 0.00 | 77 | 1011.8 |
| 20260901144527 | 16 | 271 | 4.8 | 16.1 | 0.00 | 0.00 | 0.00 | 76 | 1011.8 |
| 20260901143025 | 16 | 269 | 4.8 | 19.3 | 0.00 | 0.00 | 0.00 | 73 | 1011.9 |
| 20260901141524 | 16 | 291 | 9.7 | 22.5 | 0.00 | 0.00 | 0.00 | 71 | 1012.0 |
| 20260901140026 | 16 | 258 | 8.0 | 17.7 | 0.00 | 0.00 | 0.00 | 70 | 1012.0 |
| 20260901134526 | 16 | 343 | 8.0 | 19.3 | 0.00 | 0.00 | 0.00 | 70 | 1011.8 |
| 20260901133020 | 16 | 299 | 11.3 | 20.9 | 0.00 | 0.00 | 0.00 | 70 | 1011.7 |
| 20260901131520 | 16 | 340 | 8.0 | 27.4 | 0.00 | 0.00 | 0.00 | 70 | 1012.0 |
| 20260901130027 | 16 | 321 | 12.9 | 25.7 | 0.00 | 0.00 | 0.00 | 71 | 1012.0 |
| 20260901124530 | 16 | 320 | 8.0 | 20.9 | 0.00 | 0.00 | 0.00 | 72 | 1011.9 |
| 20260901123037 | 16 | 275 | 8.0 | 32.2 | 0.00 | 0.00 | 0.00 | 71 | 1011.9 |
| 20260901121523 | 17 | 294 | 11.3 | 24.1 | 0.00 | 0.00 | 0.00 | 68 | 1012.0 |
| 20260901120030 | 17 | 321 | 8.0 | 20.9 | 0.00 | 0.00 | 0.00 | 65 | 1011.7 |
| 20260901114519 | 17 | 263 | 9.7 | 24.1 | 0.00 | 0.00 | 0.00 | 67 | 1011.7 |
| 20260901113019 | 17 | 329 | 8.0 | 19.3 | 0.00 | 0.00 | 0.00 | 68 | 1011.9 |
| 20260901111527 | 17 | 292 | 9.7 | 25.7 | 0.00 | 0.00 | 0.00 | 69 | 1011.6 |
| 20260901110020 | 17 | 299 | 11.3 | 24.1 | 0.00 | 0.00 | 0.00 | 68 | 1011.8 |
| 20260901104518 | 17 | 340 | 9.7 | 29.0 | 0.00 | 0.00 | 0.00 | 65 | 1011.7 |
| 20260901103017 | 18 | 327 | 11.3 | 27.4 | 0.00 | 0.00 | 0.00 | 62 | 1011.9 |
| 20260901101517 | 18 | 300 | 8.0 | 24.1 | 0.00 | 0.00 | 0.00 | 60 | 1011.4 |
| 20260901100017 | 19 | 296 | 9.7 | 27.4 | 0.00 | 0.00 | 0.00 | 58 | 1011.6 |
| 20260901094517 | 19 | 319 | 14.5 | 29.0 | 0.00 | 0.00 | 0.00 | 57 | 1011.4 |
| 20260901093017 | 20 | 323 | 17.7 | 32.2 | 0.00 | 0.00 | 0.00 | 52 | 1011.2 |
| 20260901091515 | 20 | 18 | 11.3 | 29.0 | 0.00 | 0.00 | 0.00 | 52 | 1011.5 |
| 20260901090015 | 19 | 327 | 11.3 | 32.2 | 0.00 | 0.00 | 0.00 | 52 | 1011.7 |
| 20260901084512 | 19 | 331 | 12.9 | 29.0 | 0.00 | 0.00 | 0.00 | 52 | 1012.2 |
| 20260901083011 | 19 | 25 | 9.7 | 32.2 | 0.00 | 0.00 | 0.00 | 52 | 1012.2 |
| 20260901081510 | 20 | 321 | 12.9 | 27.4 | 0.00 | 0.00 | 0.00 | 52 | 1012.4 |
| 20260901080014 | 20 | 331 | 11.3 | 24.1 | 0.00 | 0.00 | 0.00 | 51 | 1012.6 |
| 20260901074511 | 20 | 311 | 11.3 | 22.5 | 0.00 | 0.00 | 0.00 | 50 | 1012.8 |
| 20260901073013 | 20 | 332 | 11.3 | 25.7 | 0.00 | 0.00 | 0.00 | 50 | 1012.8 |
| 20260901071511 | 20 | 284 | 12.9 | 25.7 | 0.00 | 0.00 | 0.00 | 49 | 1012.8 |
| 20260901070010 | 20 | 310 | 11.3 | 27.4 | 0.00 | 0.00 | 0.00 | 48 | 1012.8 |
| 20260901064510 | 20 | 268 | 14.5 | 35.4 | 0.00 | 0.00 | 0.00 | 47 | 1012.9 |
| 20260901063011 | 21 | 275 | 11.3 | 35.4 | 0.00 | 0.00 | 0.00 | 47 | 1012.7 |
| 20260901061515 | 21 | 355 | 8.0 | 25.7 | 0.00 | 0.00 | 0.00 | 49 | 1012.6 |
| 20260901060008 | 21 | 309 | 17.7 | 30.6 | 0.00 | 0.00 | 0.00 | 48 | 1012.5 |
| 20260901054508 | 21 | 300 | 9.7 | 32.2 | 0.00 | 0.00 | 0.00 | 47 | 1012.4 |
| 20260901053007 | 21 | 355 | 12.9 | 43.5 | 0.00 | 0.00 | 0.00 | 46 | 1012.3 |
| 20260901051507 | 22 | 344 | 12.9 | 41.8 | 0.00 | 0.00 | 0.00 | 46 | 1012.4 |
| 20260901050006 | 22 | 314 | 22.5 | 48.3 | 0.00 | 0.00 | 0.00 | 44 | 1012.5 |
| 20260901044505 | 22 | 11 | 20.9 | 33.8 | 0.00 | 0.00 | 0.00 | 42 | 1012.7 |
| 20260901043001 | 22 | 296 | 17.7 | 37.0 | 0.00 | 0.00 | 0.00 | 45 | 1012.9 |
| 20260901041500 | 22 | 300 | 16.1 | 32.2 | 0.00 | 0.00 | 0.00 | 45 | 1013.2 |
| 20260901040059 | 22 | 5 | 16.1 | 33.8 | 0.00 | 0.00 | 0.00 | 46 | 1013.4 |
| 20260901034555 | 22 | 311 | 16.1 | 30.6 | 0.00 | 0.00 | 0.00 | 46 | 1014.0 |
| 20260901033054 | 22 | 324 | 14.5 | 45.1 | 0.00 | 0.00 | 0.00 | 46 | 1014.4 |
| 20260901031558 | 22 | 290 | 22.5 | 43.5 | 0.00 | 0.00 | 0.00 | 45 | 1014.8 |
| 20260901030052 | 22 | 296 | 17.7 | 38.6 | 0.00 | 0.00 | 0.00 | 44 | 1015.1 |
| 20260901024553 | 22 | 339 | 14.5 | 40.2 | 0.00 | 0.00 | 0.00 | 44 | 1015.6 |
| 20260901023047 | 22 | 287 | 22.5 | 38.6 | 0.00 | 0.00 | 0.00 | 42 | 1016.2 |
| 20260901021548 | 22 | 319 | 17.7 | 37.0 | 0.00 | 0.00 | 0.00 | 43 | 1016.3 |
| 20260901020049 | 22 | 328 | 20.9 | 49.9 | 0.00 | 0.00 | 0.00 | 43 | 1016.4 |
| 20260901014539 | 21 | 287 | 20.9 | 38.6 | 0.00 | 0.00 | 0.00 | 46 | 1016.5 |
| 20260901013037 | 21 | 342 | 29.0 | 48.3 | 0.00 | 0.00 | 0.00 | 46 | 1016.5 |
| 20260901011535 | 21 | 349 | 20.9 | 45.1 | 0.00 | 0.00 | 0.00 | 50 | 1016.5 |
| 20260901010032 | 20 | 300 | 16.1 | 40.2 | 0.00 | 0.00 | 0.00 | 53 | 1017.0 |
| 20260901004528 | 20 | 339 | 17.7 | 41.8 | 0.00 | 0.00 | 0.00 | 54 | 1017.4 |
| 20260901003026 | 20 | 317 | 11.3 | 33.8 | 0.00 | 0.00 | 0.00 | 54 | 1017.8 |
| 20260901001525 | 19 | 333 | 20.9 | 37.0 | 0.00 | 0.00 | 0.00 | 53 | 1018.0 |
| 20260901000021 | 19 | 311 | 17.7 | 32.2 | 0.00 | 0.00 | 0.00 | 55 | 1018.2 |
| 20260831234518 | 18 | 309 | 19.3 | 37.0 | 0.00 | 0.00 | 0.00 | 57 | 1018.4 |
| 20260831233013 | 18 | 13 | 17.7 | 37.0 | 0.00 | 0.00 | 0.00 | 57 | 1018.9 |
| 20260831231511 | 17 | 5 | 16.1 | 40.2 | 0.00 | 0.00 | 0.00 | 61 | 1019.7 |
| 20260831230009 | 17 | 336 | 14.5 | 32.2 | 0.00 | 0.00 | 0.00 | 64 | 1020.0 |
| 20260831224504 | 17 | 342 | 17.7 | 38.6 | 0.00 | 0.00 | 0.00 | 65 | 1020.5 |
| 20260831223001 | 16 | 310 | 14.5 | 32.2 | 0.00 | 0.00 | 0.00 | 67 | 1020.6 |
| 20260831221559 | 16 | 311 | 12.9 | 35.4 | 0.00 | 0.00 | 0.00 | 69 | 1020.8 |
| 20260831220057 | 15 | 344 | 14.5 | 29.0 | 0.00 | 0.00 | 0.00 | 70 | 1020.6 |
| 20260831214558 | 15 | 321 | 11.3 | 27.4 | 0.00 | 0.00 | 0.00 | 72 | 1020.5 |
| 20260831213058 | 15 | 336 | 9.7 | 29.0 | 0.00 | 0.00 | 0.00 | 73 | 1020.5 |
| 20260831211552 | 15 | 288 | 8.0 | 24.1 | 0.00 | 0.00 | 0.00 | 74 | 1020.7 |
| 20260831210051 | 14 | 329 | 11.3 | 25.7 | 0.00 | 0.00 | 0.00 | 75 | 1020.5 |
| 20260831204548 | 14 | 5 | 8.0 | 20.9 | 0.00 | 0.00 | 0.00 | 78 | 1020.4 |
| 20260831203047 | 14 | 323 | 6.4 | 20.9 | 0.00 | 0.00 | 0.00 | 80 | 1020.6 |
| 20260831201545 | 14 | 310 | 8.0 | 22.5 | 0.00 | 0.00 | 0.00 | 81 | 1020.8 |
| 20260831200046 | 13 | 294 | 6.4 | 12.9 | 0.00 | 0.00 | 0.00 | 82 | 1020.8 |
| 20260831194613 | 14 | 342 | 6.4 | 16.1 | 0.00 | 0.00 | 0.00 | 83 | 1020.8 |
| 20260831193042 | 13 | 284 | 4.8 | 19.3 | 0.00 | 0.00 | 0.00 | 84 | 1020.9 |
| 20260831191540 | 13 | 334 | 0.0 | 19.3 | 0.00 | 0.00 | 0.00 | 86 | 1021.1 |
| 20260831190039 | 13 | 345 | 3.2 | 14.5 | 0.00 | 0.00 | 0.00 | 87 | 1021.3 |
| 20260831184538 | 13 | 20 | 6.4 | 20.9 | 0.00 | 0.00 | 0.00 | 90 | 1021.3 |
| 20260831183033 | 13 | 334 | 3.2 | 12.9 | 0.00 | 0.00 | 0.00 | 92 | 1021.5 |
| 20260831181533 | 12 | 319 | 1.6 | 9.7 | 0.00 | 0.00 | 0.00 | 94 | 1021.5 |
| 20260831180028 | 12 | 340 | 1.6 | 9.7 | 0.00 | 0.00 | 0.00 | 95 | 1021.8 |